Location: Bluff Creek
(34.8840°N, 88.9023°W)
Time: 05:19:36
(UTC+00:00)

Daily predictions for brighter satellites

Satellite Brightness Start Highest point End
(mag) Time Altitude Azimuth Time Altitude Azimuth Time Altitude Azimuth
STARLINK-1111 3.6 00:40:43 10° NW 00:44:52 89° NE 00:48:59 10° SE
Ariane Rocket 3.9 00:41:08 10° SE 00:45:30 30° ENE 00:49:52 10° N
CSL-04 Rocket 3.6 00:40:18 10° SSE 00:45:34 78° ENE 00:50:51 10° N
Cosmos 1943 3.2 00:42:01 10° SSW 00:47:39 81° ESE 00:53:21 10° NNE
SeaSat 1 2.9 00:43:21 10° NNE 00:48:15 69° WNW 00:53:08 10° SW
STARLINK-1073 3.7 00:45:42 10° NW 00:49:50 82° SW 00:53:58 10° SE
Cosmos 1602 Rocket 3.6 00:46:54 10° N 00:51:17 63° E 00:55:36 10° SSE
STARLINK-1121 3.8 00:50:41 10° NW 00:54:49 73° SW 00:58:55 10° SE
CZ-2D R/B 3.9 00:52:56 10° S 00:56:41 58° W 01:00:25 10° NNW
Cosmos 2084 Rocket 4.0 00:54:06 10° NW 00:58:32 64° WSW 01:02:57 10° SSE
Cosmos 614 Rocket 4.3 00:54:12 10° S 00:59:07 43° ESE 01:04:02 10° NNE
Meteor 2-10 4.2 00:54:24 10° S 00:59:43 62° E 01:05:14 10° NNE
STARLINK-1106 4.0 00:55:41 10° NW 00:59:47 65° SW 01:03:52 10° SE
BREEZE M DEB (TANK) 2.5 00:58:55 10° SSW 01:01:03 31° SE 01:04:38 10° ENE
STARLINK-29 2.8 01:00:38 10° SW 01:03:48 80° SE 01:07:00 10° NE
SJ-11-01 4.4 00:59:25 10° SSE 01:03:58 54° ENE 01:08:34 10° N
STARLINK-1112 4.1 01:00:41 10° NW 01:04:45 58° SW 01:08:48 10° SSE
Cosmos 1825 Rocket 4.2 01:03:35 10° NNE 01:07:33 33° E 01:11:28 10° SE
ATLAS 2AS CENTAUR R/B 3.8 01:02:17 10° NNW 01:08:43 30° NE 01:13:46 14° E
USA 234 4.1 01:04:03 10° ENE 01:09:27 27° SE 01:14:49 10° S
ARGOS 3.7 01:04:42 10° SE 01:09:39 38° ENE 01:14:35 10° N
STARLINK-1128 4.3 01:05:43 10° NW 01:09:44 51° SW 01:13:44 10° SSE
CZ-2C R/B 3.8 01:06:21 10° NE 01:09:56 19° E 01:13:31 10° SE
Cosmos 1626 4.5 01:06:58 10° NNW 01:10:09 27° W 01:13:19 10° SSW
Cosmos 2228 3.2 01:07:50 10° SSE 01:11:54 46° E 01:16:03 10° NNE
IRIDIUM 103 4.3 01:10:45 10° N 01:15:56 62° E 01:21:04 10° SSE
SJ-6B 3.8 01:13:05 13° SE 01:16:07 31° ENE 01:19:45 10° N
Cosmos 2184 Rocket 4.1 01:11:29 10° N 01:17:36 54° E 01:23:37 10° SSE
ARGOS Delta rocket 4.1 01:13:17 10° SSE 01:18:30 84° E 01:23:58 10° N
Cosmos 1758 Rocket 3.5 01:17:14 10° N 01:21:30 60° E 01:25:44 10° SSE
Cosmos 407 Rocket 3.4 01:16:46 10° S 01:21:49 59° ESE 01:26:52 10° NNE
ISS -2.8 01:19:52 10° WNW 01:23:05 44° SW 01:25:39 14° SSE
GEOS 3 Rocket 3.6 01:19:17 13° SE 01:23:51 68° NE 01:29:01 10° NNW
Cosmos 1606 Rocket 3.5 01:19:39 10° S 01:24:01 72° E 01:28:28 10° N
SL-24 R/B - RUBIN 2 4.1 01:18:55 10° SSW 01:24:11 83° ESE 01:30:16 10° NNE
Cosmos 1992 Rocket 4.3 01:23:56 10° NNW 01:29:07 68° WSW 01:34:15 10° S
FALCON 9 DEB 3.7 01:25:43 10° SW 01:29:10 61° NW 01:32:37 10° NE
SPOT 3 Rocket 4.3 01:26:29 19° ESE 01:29:22 32° ENE 01:33:58 10° N
Cosmos 1953 Rocket 4.1 01:25:15 10° N 01:29:29 39° E 01:32:04 20° SE
Nadezhda 1 Rocket 4.0 01:24:30 10° S 01:30:47 63° E 01:37:04 10° NNE
CZ-3 Stage 3 4.1 01:26:16 10° WSW 01:32:38 71° SSE 02:13:06 10° E
IRIDIUM 106 4.3 01:28:58 10° N 01:34:12 86° W 01:39:24 10° S
GPS 2-04 Rocket1 4.1 01:33:01 10° SSW 01:36:10 22° SSE 01:36:12 22° SSE
Aureole 1 Rocket 4.3 01:31:52 10° SSW 01:39:53 88° WNW 01:46:20 10° NNE
SL-8 R/B 3.6 01:35:29 10° NW 01:40:16 88° NNE 01:42:40 29° SE
Cosmos 2154 Rocket 4.2 01:34:07 10° N 01:40:18 52° E 01:45:03 17° SSE
SEDSat Delta rocket 4.0 01:35:38 10° W 01:40:31 40° SSW 01:42:40 25° SE
MONITOR-E 3.6 01:40:11 47° SSE 01:40:49 87° E 01:43:27 10° N
Hubble Space Telescope 1.9 01:37:42 10° SW 01:41:10 26° S 01:41:46 25° SSE
Cosmos 1340 Rocket 2.8 01:38:20 10° S 01:42:19 58° E 01:46:18 10° NNE
ATLAS 5 CENTAUR R/B 1.8 01:38:48 10° SW 01:42:47 66° WNW 01:47:10 10° NNE
Cosmos 1437 3.2 01:40:26 10° NNW 01:43:23 55° W 01:45:34 16° S
STARLINK-52 4.3 01:41:19 10° WSW 01:44:21 39° NW 01:47:23 10° NNE
BREEZE-M DEB (TANK) 3.9 01:37:21 10° SW 01:45:39 58° SE 01:47:15 31° ENE
Cosmos 1954 Rocket 4.2 01:41:10 10° S 01:46:08 45° ESE 01:51:07 10° NNE
Cosmos 1023 Rocket 4.3 01:41:14 10° S 01:46:24 77° ESE 01:51:34 10° NNE
Cosmos 1703 3.1 01:46:25 10° N 01:50:23 81° E 01:52:22 29° SSE
Cosmos 1328 3.6 01:47:50 10° N 01:51:52 81° E 01:53:43 30° SSE
Cosmos 1908 3.8 01:50:22 10° SSW 01:54:08 57° W 01:57:57 10° N
Cosmos 1943 Rocket 4.2 01:56:46 10° NW 02:01:16 26° WSW 02:05:47 10° SSW
Cosmos 2074 Rocket 4.5 01:55:20 10° NNW 02:01:32 62° W 02:07:43 10° S
CZ-2C R/B 3.8 01:56:51 10° N 02:01:32 76° WNW 02:06:06 10° SSW
FREGAT/IRIS 4.4 02:02:08 21° SW 02:03:09 27° W 02:05:33 10° NW
MOS 1 Rocket 3.5 01:58:03 10° NNE 02:03:30 70° E 02:08:52 10° S
H-2A R/B 2.9 01:59:57 10° S 02:05:01 49° W 02:09:59 10° NNW
SL-08 RB Rocket 3.7 02:03:36 28° S 02:05:57 79° WSW 02:10:33 10° NNW
Resurs 1-3 3.5 02:06:49 57° E 02:07:12 60° ENE 02:11:31 10° N
CZ-2C R/B 3.8 02:04:49 10° S 02:09:35 47° W 02:14:12 10° NNW
Cosmos 2369 Rocket 4.0 02:07:14 10° NW 02:12:00 29° WSW 02:16:45 10° SSW
USA 186 4.0 02:11:45 13° SSW 02:13:59 25° W 02:16:45 10° NW
OAO 1 4.4 02:15:49 10° WSW 02:21:17 67° SSE 02:21:43 64° SE
ATLAS 5 CENTAUR R/B 3.8 02:17:00 10° SW 02:22:51 35° SSE 02:25:07 33° SE
Cosmos 2058 Rocket 4.1 02:20:19 10° SSW 02:24:38 45° W 02:28:58 10° N
NOSS 3-4 (A) 3.8 02:20:38 10° NNW 02:27:55 84° ENE 02:30:28 47° SE
NOSS 3-4 (C) 3.8 02:20:45 10° NNW 02:28:02 83° ENE 02:30:33 48° SE
Spot 2 Rocket 4.5 02:37:38 35° NNE 02:37:38 35° NNE 02:41:02 10° N
Resurs 01 Rocket 2.1 02:38:44 57° NNW 02:38:44 57° NNW 02:42:16 10° NNW
Cosmos 921 Rocket 4.2 02:46:14 10° NNW 02:49:03 39° NW 02:49:03 39° NW
CZ-2C R/B 3.6 02:45:29 10° N 02:50:22 43° WNW 02:55:15 10° SW
USA 234 3.4 02:46:12 10° NE 02:52:42 69° NW 02:59:10 10° SW
COSMOS 2455 2.9 02:52:20 10° NNW 02:57:51 75° NNW 02:57:51 75° NNW
Cosmos 2341 Rocket 4.3 02:52:11 10° NNW 02:58:31 65° W 02:59:41 55° SW
Cosmos 1461 4.3 02:54:27 10° NW 02:57:39 42° NW 02:57:39 42° NW
ATLAS 2AS CENTAUR R/B 3.1 02:52:55 10° NW 03:00:01 55° WSW 03:01:14 49° SSW
Cosmos 2218 Rocket 4.2 03:06:12 10° N 03:11:33 68° NNW 03:11:33 68° NNW
Terra 4.4 03:17:58 12° NNE 03:17:58 12° NNE 03:18:22 10° NNE
CZ-4C R/B 4.2 04:38:45 10° NNW 04:42:42 33° N 04:42:42 33° N
SL-16 R/B 4.4 07:31:51 24° N 07:31:51 24° N 07:34:07 10° N
Cosmos 2227 Rocket 4.2 07:49:49 23° NE 07:49:49 23° NE 07:52:07 10° NE
ADEOS II 4.3 07:50:01 10° NNE 07:51:59 22° NE 07:51:59 22° NE
CENTAUR R/B 3.8 08:07:43 32° ENE 08:07:43 32° ENE 08:11:52 10° NE
Resurs 1-4 Rocket 4.4 08:02:09 10° N 08:03:19 17° N 08:03:19 17° N
ARIANE 5 R/B 4.3 08:09:36 10° NNE 08:12:24 29° NE 08:12:24 29° NE
SL-16 R/B 4.4 08:21:58 10° N 08:26:23 23° ENE 08:30:46 10° ESE
NOSS 3-2 (C) 3.9 08:35:40 53° NE 08:35:40 53° NE 08:40:25 10° NNE
CZ-2D R/B 4.3 08:29:41 10° NNW 08:31:06 16° NNW 08:31:06 16° NNW
BREEZE-M DEB 4.1 08:44:26 72° NNE 08:44:26 72° NNE 08:56:28 10° NE
Cosmos 2237 Rocket 4.0 08:44:06 10° NNW 08:45:50 21° NNW 08:45:50 21° NNW
Cosmos 1634 Rocket 4.3 08:44:09 10° N 08:48:51 54° NNW 08:48:51 54° NNW
Cosmos 2263 Rocket 4.5 08:52:04 11° SE 08:55:28 19° E 08:59:16 10° ENE
ATLAS 3B R/B 2.9 09:02:26 53° SSE 09:03:39 62° ESE 09:10:11 10° NE
Cosmos 2297 Rocket 3.5 09:05:40 29° NNW 09:05:40 29° NNW 09:09:16 10° N
USA 267 3.3 09:01:09 10° NE 09:07:33 59° NW 09:08:17 56° WNW
Cosmos 2142 Rocket 4.3 09:03:36 10° N 09:09:56 77° W 09:10:10 76° WSW
Cosmos 1048 Rocket 4.0 09:08:03 10° NNW 09:13:11 82° N 09:13:11 82° N
Meteor 2-4 Rocket 3.9 09:13:58 54° SSE 09:15:20 77° E 09:21:14 10° NNE
Meteor 2-9 Rocket 4.3 09:09:48 10° N 09:15:42 78° E 09:18:26 33° SSE
Cosmos 1125 Rocket 4.2 09:18:54 42° NW 09:18:54 42° NW 09:23:03 10° N
CZ-4B R/B 3.7 09:17:44 16° ESE 09:19:45 26° ENE 09:22:42 10° NNE
ATLAS 5 CENTAUR R/B 3.4 09:21:02 30° S 09:23:03 41° SE 09:26:06 10° ENE
Cosmos 389 Rocket 4.5 09:32:35 21° N 09:32:35 21° N 09:33:57 10° N
Meteor 1-4 Rocket 3.1 09:30:48 57° E 09:30:48 57° E 09:34:26 10° NNE
Cosmos 2227 Rocket 3.6 09:31:39 22° NW 09:31:39 22° NW 09:35:24 10° N
Nadezhda 4 Rocket 4.0 09:27:55 29° S 09:31:20 82° E 09:37:42 10° N
ADEOS II 3.8 09:30:38 10° NNW 09:32:55 18° NW 09:32:55 18° NW
H-2A R/B 4.4 09:40:07 11° NW 09:40:07 11° NW 09:40:20 10° NNW
Cosmos 2279 Rocket 4.0 09:31:18 10° NNW 09:37:21 55° W 09:38:54 44° SW
MSX 3.8 09:37:30 10° NNE 09:43:18 90° WNW 09:46:38 27° SSW
CBERS 1 LM4 rocket 4.4 09:41:39 10° NNE 09:46:40 88° ESE 09:49:25 29° SSW
IDEFIX/ARIANE 42P 2.7 09:42:49 10° N 09:47:52 52° WNW 09:48:54 45° WSW
BREEZE-M DEB (TANK) 2.6 09:43:53 10° NW 09:48:24 87° NE 09:52:44 10° SE
Cosmos 1674 Rocket 3.6 09:48:19 29° S 09:50:31 79° E 09:54:55 10° N
CZ-2C R/B 2.9 09:47:07 10° NNE 09:51:36 53° E 09:56:05 10° S
Shenzhou-11 Module 3.6 09:53:05 25° ESE 09:53:05 25° ESE 09:54:40 10° E
ARIANE 5 R/B 4.1 09:49:43 10° NNW 09:52:44 19° WNW 09:52:44 19° WNW
Okean 3 4.5 09:56:32 30° NW 09:56:32 30° NW 09:59:29 10° NNW
CENTAUR R/B 3.3 09:54:54 27° WNW 09:56:39 31° NW 10:02:35 10° NNE
deb Chang Zheng 4 3.9 09:52:48 10° N 09:56:53 42° WNW 09:57:13 42° W
Cosmos 1689 Rocket 3.4 09:58:40 10° SSE 10:01:31 41° ENE 10:04:22 10° N
Meteor 1-13 Rocket 4.4 10:06:12 24° SW 10:09:33 52° W 10:15:04 10° N
Gbstr 26 Del rocket 3.7 10:05:50 26° SW 10:09:37 87° NW 10:14:59 10° NE
SL-16 R/B 2.4 10:05:18 10° NW 10:10:39 44° WSW 10:15:59 10° S
ADEOS 3.5 10:06:17 10° N 10:11:31 80° WNW 10:16:42 10° SSW
Cosmos 1066 Rocket 4.4 10:08:03 10° S 10:13:53 82° E 10:19:46 10° N
PAYLOAD A 4.0 10:09:17 10° N 10:14:37 70° WNW 10:19:31 11° SSW
Cosmos 1356 3.7 10:11:39 10° NNW 10:14:55 41° W 10:15:36 36° SW
Cosmos 1300 Rocket 3.9 10:12:22 10° NNW 10:16:23 39° W 10:19:11 18° SSW
Cosmos 967 Rocket 4.4 10:11:14 10° NNW 10:17:37 66° WSW 10:23:53 10° SSE
Cosmos 1437 Rocket 3.5 10:13:42 10° S 10:17:42 57° E 10:21:42 10° NNE
SeaSat 1 3.8 10:14:03 10° SE 10:18:38 41° ENE 10:23:16 10° N
Okean 2 Rocket 4.2 10:23:57 10° NW 10:27:36 24° W 10:29:13 20° WSW
PSLV R/B 4.4 10:24:25 10° N 10:28:18 32° WNW 10:30:37 19° WSW
Cosmos 1378 Rocket 3.7 10:25:17 13° SSW 10:28:55 48° W 10:33:09 10° N
Cosmos 2151 Rocket 4.2 10:25:15 10° NNW 10:29:13 34° W 10:33:11 10° SSW
Cosmos 2195 Rocket 4.5 10:25:16 10° SSW 10:31:19 61° W 10:37:28 10° N
Meteor 1-23 Rocket 4.3 10:26:35 10° SSW 10:32:12 62° W 10:37:56 10° N
Cosmos 1603 4.0 10:28:06 10° NNW 10:33:44 72° ENE 10:39:21 10° SSE
Cosmos 1818 3.6 10:29:20 10° NW 10:34:38 54° WSW 10:39:52 10° S
Cosmos 1627 Rocket 4.5 10:28:51 10° SSW 10:34:55 63° W 10:40:59 10° N
Meteor 1-31 Rocket 2.8 10:33:22 10° NNE 10:37:19 88° ESE 10:41:12 10° SSW
ATLAS 5 CENTAUR R/B 2.6 10:31:33 10° NNW 10:37:39 84° ENE 10:44:35 10° SSE
Meteor 1-15 Rocket 4.2 10:32:16 10° NNW 10:37:53 78° W 10:43:33 10° S
Cosmos 2263 Rocket 2.5 10:33:49 12° SW 10:38:54 50° WNW 10:44:25 10° N
Cosmos 1867 4.5 10:39:53 15° WSW 10:43:39 32° NW 10:48:31 10° N
CZ-4B R/B 3.3 10:50:56 12° WSW 10:52:03 14° W 10:53:54 10° WNW
ATLAS 3B R/B 3.9 10:49:42 11° W 10:54:44 24° NW 11:00:01 10° N
Meteor 2-13 Rocket 4.4 10:49:10 10° SSW 10:55:09 64° W 11:01:10 10° N
Lacrosse 4 Rocket 3.9 10:52:08 10° SSE 10:55:37 24° ESE 10:59:11 10° NE
H-2A R/B 2.3 10:56:37 10° N 11:00:36 70° WNW 11:04:26 10° SSW
STARLINK-1145 4.5 11:02:28 10° SSW 11:05:42 38° SE 11:08:57 10° ENE
ALOS 2.3 11:01:03 10° N 11:05:44 85° WNW 11:10:23 10° SSW
Cosmos 2251 Rocket 3.5 11:00:42 10° NNW 11:06:02 80° WSW 11:11:19 10° SSE
Cosmos 1766 3.2 11:03:04 10° N 11:06:57 77° W 11:10:47 10° S
STARLINK-1161 4.4 11:04:17 10° SSW 11:07:33 40° SE 11:10:50 10° ENE
Okean 2 3.6 11:04:12 10° SSW 11:08:12 51° W 11:12:13 10° N
SJ-12 3.9 11:04:09 10° NNE 11:08:15 90° SW 11:12:18 10° SSW
STARLINK-1160 4.3 11:06:09 10° SSW 11:09:28 43° SE 11:12:47 10° ENE
S3M 4.3 11:05:06 10° N 11:11:22 78° E 11:17:31 10° S
